Weather History for KPTS - June, 2014

Change the Weather History Date:

Wednesday, June 4, 2014

  Actual Average (KJLN) Record (KJLN)
Temperature  
Mean Temperature 79 °F 72 °F  
Max Temperature 84 °F 83 °F 92 °F (1953)
Min Temperature 74 °F 62 °F 47 °F (2003)
Degree Days  
Heating Degree Days 0 0  
Month to date heating degree days 2  
Since 1 June heating degree days 2  
Since 1 July heating degree days 4071  
Cooling Degree Days 14 8  
Month to date cooling degree days 29  
Year to date cooling degree days 209  
Since 1 June cooling degree days 29  
Growing Degree Days 29 (Base 50)    
Moisture  
Dew Point 73 °F    
Average Humidity 78    
Maximum Humidity 100    
Minimum Humidity 65    
Precipitation  
Precipitation 0.03 in 0.21 in 1.94 in (1985)
Month to date precipitation 0.82  
Year to date precipitation 18.77  
Sea Level Pressure  
Sea Level Pressure 29.80 in    
Wind  
Wind Speed 10 mph (SSW)    
Max Wind Speed 25 mph    
Max Gust Speed 31 mph    
Visibility 10 miles    
Events Thunderstorm    
T = Trace of Precipitation, MM = Missing Value Source: NWS Daily Summary

Daily Weather History Graph

Daily Weather History Graph

Search for Another Location

Airport or City:

Trip Planner

Search our weather history database for the weather conditions in past years. The results will help you decide how hot, cold, wet, or windy it might be!

Date:

Astronomy

Jun. 04, 2014 Rise Set
Actual Time 5:58 AM CDT 8:36 PM CDT
Civil Twilight 5:27 AM CDT 9:06 PM CDT
Nautical Twilight 4:49 AM CDT 9:45 PM CDT
Astronomical Twilight 4:07 AM CDT 10:27 PM CDT
Moon 12:13 PM CDT (6/4) 12:40 AM CDT (6/4)
Length of Visible Light 15h 38m
Length of Day
14h 37m
Waxing Crescent, 39% of the Moon is Illuminated
Jun 4
Waxing Crescent
Jun 5
First Quarter
Jun 12
Full
Jun 19
Last Quarter
Jun 27
New

Hourly Weather History & Observations

Time (CDT) Temp. Heat Index Dew Point Humidity Pressure Visibility Wind Dir Wind Speed Gust Speed Precip Events Conditions
12:15 AM 77.7 °F - 71.8 °F 82% 29.81 in 10.0 mi SSW 12.7 mph 17.3 mph N/A   Unknown
12:35 AM 77.0 °F - 70.7 °F 81% 29.82 in 10.0 mi SSW 9.2 mph - N/A   Unknown
12:55 AM 76.6 °F - 70.2 °F 80% 29.82 in 10.0 mi SW 10.4 mph - N/A   Unknown
1:15 AM 76.6 °F - 69.8 °F 79% 29.81 in 10.0 mi SSW 15.0 mph 18.4 mph N/A   Unknown
1:35 AM 76.3 °F - 69.3 °F 79% 29.82 in 10.0 mi SSW 11.5 mph - N/A   Unknown
1:55 AM 76.1 °F - 69.6 °F 80% 29.81 in 10.0 mi SSW 12.7 mph - N/A   Unknown
2:15 AM 76.1 °F - 70.0 °F 81% 29.79 in 10.0 mi SSW 15.0 mph 19.6 mph N/A   Unknown
2:35 AM 76.1 °F - 70.2 °F 82% 29.79 in 10.0 mi SSW 15.0 mph 24.2 mph N/A   Unknown
2:55 AM 76.1 °F - 69.8 °F 81% 29.72 in 10.0 mi South 23.0 mph 31.1 mph N/A   Unknown
3:15 AM 76.1 °F - 69.1 °F 79% 29.72 in 10.0 mi SSW 25.3 mph 29.9 mph N/A   Unknown
3:35 AM 76.3 °F - 69.1 °F 78% 29.73 in 10.0 mi SSW 21.9 mph 31.1 mph N/A   Unknown
4:15 AM 77.7 °F - 69.8 °F 76% 29.75 in 10.0 mi SW 16.1 mph 27.6 mph N/A   Unknown
4:35 AM 78.1 °F - 69.8 °F 76% 29.88 in 10.0 mi North 12.7 mph 24.2 mph N/A   Unknown
4:55 AM 78.4 °F - 69.8 °F 75% 29.83 in 10.0 mi SW 9.2 mph - N/A   Unknown
5:15 AM 76.8 °F - 69.1 °F 77% 29.82 in 10.0 mi SSW 9.2 mph 17.3 mph N/A   Unknown
5:35 AM 76.1 °F - 69.4 °F 80% 29.84 in 10.0 mi Calm Calm - N/A   Unknown
5:55 AM 76.1 °F - 73.8 °F 92% 29.84 in 7.0 mi ESE 3.5 mph - N/A   Unknown
6:15 AM 75.6 °F - 75.6 °F 100% 29.84 in 10.0 mi ESE 4.6 mph - N/A   Unknown
6:35 AM 74.1 °F - - N/A% 29.82 in 10.0 mi SSE 9.2 mph - N/A   Unknown
7:15 AM 76.1 °F - - N/A% 29.86 in 10.0 mi Calm Calm - N/A   Unknown
7:35 AM 76.1 °F - - N/A% 29.86 in 10.0 mi East 3.5 mph - N/A   Unknown
7:55 AM 76.1 °F - 76.1 °F 100% 29.84 in 10.0 mi South 5.8 mph - N/A   Unknown
8:15 AM 76.6 °F - 75.4 °F 96% 29.84 in 10.0 mi South 6.9 mph - N/A   Unknown
8:35 AM 77.5 °F - 74.8 °F 91% 29.83 in 7.0 mi South 9.2 mph - N/A   Unknown
8:55 AM 78.4 °F - 74.7 °F 88% 29.82 in 10.0 mi South 10.4 mph - N/A   Unknown
9:15 AM 78.4 °F - 74.1 °F 87% 29.81 in 10.0 mi SSW 13.8 mph 19.6 mph N/A   Unknown
9:35 AM 79.9 °F - 74.1 °F 82% 29.80 in 10.0 mi SSW 16.1 mph - N/A   Unknown
9:55 AM 80.8 °F 86.3 °F 74.7 °F 82% 29.79 in 10.0 mi SW 15.0 mph 18.4 mph N/A   Unknown
10:15 AM 80.4 °F 85.1 °F 73.8 °F 80% 29.79 in 10.0 mi SW 12.7 mph 21.9 mph N/A   Unknown
10:35 AM 81.0 °F 85.8 °F 73.2 °F 77% 29.79 in 10.0 mi SW 13.8 mph 20.7 mph N/A   Unknown
10:55 AM 81.7 °F 86.3 °F 71.8 °F 72% 29.79 in 10.0 mi SW 13.8 mph 21.9 mph N/A   Unknown
11:15 AM 82.4 °F 86.7 °F 70.7 °F 68% 29.79 in 10.0 mi SW 12.7 mph 23.0 mph N/A   Unknown
11:35 AM 83.3 °F 87.9 °F 71.1 °F 66% 29.79 in 10.0 mi SW 15.0 mph 20.7 mph N/A   Unknown
11:55 AM 83.7 °F 88.3 °F 70.9 °F 65% 29.79 in 10.0 mi SW 16.1 mph 20.7 mph N/A   Unknown
12:15 PM 83.7 °F 88.3 °F 70.7 °F 65% 29.79 in 10.0 mi SW 15.0 mph 19.6 mph N/A   Unknown
12:35 PM 83.7 °F 88.6 °F 71.1 °F 66% 29.78 in 10.0 mi WSW 15.0 mph 18.4 mph N/A   Unknown
12:55 PM 83.8 °F 88.6 °F 70.9 °F 65% 29.79 in 10.0 mi WSW 11.5 mph 19.6 mph N/A   Unknown
1:15 PM 83.5 °F 88.5 °F 71.4 °F 67% 29.79 in 10.0 mi WSW 8.1 mph - N/A   Unknown
1:35 PM 83.3 °F 88.4 °F 72.0 °F 68% 29.79 in 10.0 mi WSW 8.1 mph 16.1 mph N/A   Unknown
1:55 PM 82.8 °F 87.7 °F 71.6 °F 69% 29.79 in 10.0 mi WSW 8.1 mph - N/A   Unknown
2:15 PM 83.1 °F 88.4 °F 72.0 °F 69% 29.79 in 10.0 mi WSW 9.2 mph - N/A   Unknown
2:35 PM 83.1 °F 88.4 °F 72.1 °F 69% 29.79 in 10.0 mi WSW 9.2 mph - N/A   Unknown
2:55 PM 83.7 °F 89.2 °F 72.1 °F 68% 29.78 in 10.0 mi WSW 9.2 mph - N/A   Unknown
3:15 PM 84.2 °F 89.9 °F 72.3 °F 67% 29.78 in 10.0 mi SW 8.1 mph 16.1 mph N/A   Unknown
3:35 PM 84.9 °F 90.7 °F 72.1 °F 65% 29.78 in 10.0 mi SW 8.1 mph - N/A   Unknown
4:15 PM 84.0 °F 89.9 °F 72.3 °F 68% 29.77 in 10.0 mi WSW 8.1 mph - N/A   Unknown
4:35 PM 84.6 °F 91.0 °F 73.0 °F 68% 29.77 in 10.0 mi WSW 8.1 mph - N/A   Unknown
4:55 PM 84.6 °F 91.0 °F 73.0 °F 68% 29.77 in 10.0 mi SW 6.9 mph - N/A   Unknown
5:15 PM 83.8 °F 90.8 °F 73.9 °F 72% 29.77 in 10.0 mi Calm Calm - N/A   Unknown
5:35 PM 83.5 °F 90.6 °F 74.5 °F 74% 29.77 in 10.0 mi Calm Calm - N/A   Unknown
5:55 PM 83.5 °F 91.9 °F 75.9 °F 78% 29.77 in 10.0 mi Calm Calm - N/A   Unknown
6:15 PM 84.0 °F 91.9 °F 75.0 °F 74% 29.77 in 10.0 mi Calm Calm - N/A   Unknown
6:35 PM 84.6 °F 91.7 °F 73.8 °F 70% 29.77 in 10.0 mi Calm Calm - N/A   Unknown
6:55 PM 83.3 °F 92.8 °F 77.2 °F 82% 29.77 in 10.0 mi Calm Calm - N/A   Unknown
7:15 PM 82.4 °F 93.7 °F 80.2 °F 93% 29.77 in 10.0 mi Calm Calm - N/A   Unknown
7:35 PM 82.4 °F 95.1 °F 81.3 °F 97% 29.77 in 10.0 mi Calm Calm - N/A   Unknown
7:55 PM 81.5 °F 92.6 °F 81.7 °F 100% 29.78 in 10.0 mi Calm Calm - N/A   Unknown
8:15 PM 81.0 °F 90.6 °F 81.1 °F 100% 29.77 in 10.0 mi Calm Calm - N/A   Unknown
8:35 PM - - - N/A% 29.77 in 10.0 mi NE 3.5 mph - N/A   Unknown
8:55 PM 80.2 °F 88.0 °F 80.6 °F 100% 29.79 in 1.2 mi NNE 5.8 mph 11.5 mph N/A   Unknown
9:15 PM 78.4 °F - - N/A% 29.79 in 10.0 mi NE 6.9 mph - N/A   Unknown
9:35 PM 78.4 °F - - N/A% 29.78 in 10.0 mi ENE 5.8 mph - 0.01 in Thunderstorm Thunderstorm
9:55 PM 78.4 °F - - N/A% 29.80 in 7.0 mi Calm Calm - 0.02 in Thunderstorm Unknown
10:15 PM 78.4 °F - - N/A% 29.79 in 10.0 mi NE 6.9 mph - N/A Thunderstorm Unknown
10:35 PM 77.4 °F - - N/A% 29.79 in 10.0 mi NE 5.8 mph - 0.01 in   Unknown
10:55 PM 76.1 °F - - N/A% 29.80 in 10.0 mi NE 5.8 mph - 0.01 in Thunderstorm Thunderstorm
11:15 PM 76.1 °F - - N/A% 29.81 in 10.0 mi ENE 9.2 mph - N/A Thunderstorm Thunderstorm
11:35 PM 76.1 °F - - N/A% 29.81 in 10.0 mi ENE 6.9 mph - N/A Thunderstorm Unknown
11:55 PM 76.1 °F - - N/A% 29.81 in 10.0 mi ENE 6.9 mph - N/A Thunderstorm Thunderstorm